This is the latest recevied weather packets stored in our database for station/object KD4IZ-13. If no packets are shown the sender has not sent any weather packets the latest 10 day(s).
| Time | Temp. | Humidity | Pressure | Rain* | Wind** | Luminosity | Snow |
|---|---|---|---|---|---|---|---|
| 1777463674 | 11.11° C | 88% | 1016.3 hPa | 0 mm | - | 30 W/m² | - |
| 1777463369 | 11.11° C | 88% | 1016.4 hPa | 0 mm | - | 28 W/m² | - |
| 1777463066 | 11.67° C | 87% | 1016.4 hPa | 0 mm | - | 29 W/m² | - |
| 1777462761 | 11.11° C | 88% | 1016.4 hPa | 0 mm | - | 26 W/m² | - |
| 1777462456 | 11.11° C | 88% | 1016.5 hPa | 0 mm | - | 28 W/m² | - |
| 1777462154 | 11.11° C | 87% | 1016.4 hPa | 0 mm | - | 30 W/m² | - |
| 1777461850 | 11.11° C | 88% | 1016.7 hPa | 0 mm | - | 29 W/m² | - |
| 1777461546 | 11.11° C | 88% | 1016.4 hPa | 0 mm | - | 20 W/m² | - |
| 1777461242 | 11.11° C | 88% | 1016.4 hPa | 0 mm | - | 19 W/m² | - |
| 1777460937 | 11.11° C | 88% | 1016.1 hPa | 0 mm | - | 23 W/m² | - |
| 1777460633 | 11.11° C | 88% | 1016.2 hPa | 0 mm | - | 22 W/m² | - |
| 1777460329 | 11.11° C | 88% | 1016.1 hPa | 0 mm | - | 21 W/m² | - |
| 1777460026 | 11.11° C | 88% | 1016.2 hPa | 0 mm | - | 17 W/m² | - |
| 1777459723 | 11.11° C | 87% | 1016.2 hPa | 0 mm | - | 14 W/m² | - |
| 1777459419 | 11.11° C | 87% | 1016.6 hPa | 0 mm | - | 11 W/m² | - |
| 1777459117 | 11.11° C | 88% | 1016.4 hPa | 0 mm | - | 7 W/m² | - |
| 1777458814 | 11.11° C | 88% | 1016.3 hPa | 0 mm | - | 5 W/m² | - |
| 1777458511 | 11.11° C | 88% | 1016.5 hPa | 0 mm | - | 3 W/m² | - |
| 1777458208 | 11.11° C | 88% | 1016.3 hPa | 0 mm | - | 2 W/m² | - |
| 1777457903 | 11.67° C | 87% | 1016.4 hPa | 0 mm | - | 0 W/m² | - |
| 1777457599 | 11.67° C | 86% | 1016.6 hPa | 0 mm | - | 0 W/m² | - |
| 1777457294 | 11.67° C | 86% | 1016.5 hPa | 0 mm | - | 0 W/m² | - |
| 1777456990 | 11.67° C | 86% | 1016.2 hPa | 0 mm | - | 0 W/m² | - |
| 1777456685 | 11.67° C | 86% | 1016.3 hPa | 0 mm | - | 0 W/m² | - |
| 1777456380 | 11.67° C | 86% | 1016 hPa | 0 mm | - | 0 W/m² | - |
* Rain latest hour (hover to see other rain measurements)
** Current wind speed in m/s (hover to see current wind gust speed)